Regional Weather Roundup
Issued by NWS Sterling, VA

Home | Current Version | Previous Version | Text Only | Print | Product List | Glossary On
Versions: 1 2 3 4 5 6 7 8 9 10 11 12 13 14 15 16 17 18 19 20 21 22 23 24 25 26 27 28 29 30 31 32 33 34 35 36 37 38 39 40 41 42 43 44 45 46 47 48 49 50
000
ASUS41 KLWX 271810
RWRLWX

REGIONAL WEATHER ROUNDUP
NATIONAL WEATHER SERVICE BALTIMORE MD/WASHINGTON DC
200 PM EDT WED AUG 27 2014

Note: "FAIR" indicates few or no clouds below 12,000 feet
with no significant weather and/or obstructions to visibility.
 TC=TEMPERATURE CELSIUS

 * =Non NWS site. Station does not report precipitation (e.g. rain,
    snow, etc.), thunder, or fog.

DCZ001-MDZ009-015-VAZ040>042-051-053>054-271900-
WASHINGTON METRO
  /KDAA//-FT BELVOIR

CITY           SKY/WX    TMP DP  RH WIND       PRES   REMARKS
WASHINGTON NAT MOSUNNY   87  64  46 S10       30.00F
DULLES         MOSUNNY   85  62  46 CALM      30.02F
ANDREWS AFB    SUNNY     86  61  42 SW5       30.01F
QUANTICO       MOSUNNY   83  66  56 S8        30.02F
COLLEGE PARK*  SUNNY     88  55  33 CALM      29.99F
LEESBURG*      SUNNY     86  66  51 W3        30.03F
MANASSAS*      SUNNY     84  63  48 CALM      30.02F
GAITHERSBURG*  SUNNY     84  64  51 SW5       30.05F

$$

MDZ006>007-011-014-271900-
BALTIMORE METRO

CITY           SKY/WX    TMP DP  RH WIND       PRES   REMARKS
BWI AIRPORT    MOSUNNY   87  61  41 CALM      29.99F
MD SCIENCE CTR   N/A     87  61  41 MISG      29.99F
MARTIN STATE   SUNNY     84  72  65 SE8       30.01F
ANNAPOLIS      SUNNY     80  68  66 SE10      29.99F
FORT MEADE*    SUNNY     86  61  42 W5        30.02F

$$

MDZ012-015-019>023-271900-
MARYLAND EASTERN SHORE

CITY           SKY/WX    TMP DP  RH WIND       PRES   REMARKS
OCEAN CITY     SUNNY     79  67  66 E6        30.00F
SALISBURY      SUNNY     87  60  40 N3        29.99F
BAY BRIDGE AP*   N/A     84  59  42 W6        30.00F
CAMBRIDGE*     SUNNY     84  63  48 CALM      30.00F
EASTON*        SUNNY     86  66  51 CALM      30.04F

$$

MDZ017>025-271900-
SOUTHERN MARYLAND

CITY           SKY/WX    TMP DP  RH WIND       PRES   REMARKS
PATUXENT RIVER MOSUNNY   84  62  47 VRB7      30.00F
ST INIGOES     SUNNY     84  61  45 NE6       30.00F
LEONARDTOWN*   SUNNY     82  59  44 W5        30.02F

$$

MDZ003>005-271900-
NORTH CENTRAL MARYLAND

CITY           SKY/WX    TMP DP  RH WIND       PRES   REMARKS
FREDERICK*     MOSUNNY   88  70  55 CALM      30.04F HX  92
HAGERSTOWN APT MOSUNNY   82  64  54 SW7       30.03F
WESTMINSTER*   MOSUNNY   82  66  57 W3        30.03F

$$

MDZ501>502-271900-
WESTERN MARYLAND

CITY           SKY/WX    TMP DP  RH WIND       PRES   REMARKS
OAKLAND*       MOSUNNY   77  68  73 NW3       30.16F
CUMBERLAND*    SUNNY     91  64  40 W3        30.06F HX  93

$$

VAZ025>031-271900-
SHENANDOAH VALLEY

CITY           SKY/WX    TMP DP  RH WIND       PRES   REMARKS
WINCHESTER*    PTSUNNY   82  64  54 CALM      30.04F
STAUNTON*      SUNNY     82  61  48 NW3       30.09F

$$

WVZ021-048>050-054>055-271900-
EASTERN WEST VIRGINIA PANHANDLE

CITY           SKY/WX    TMP DP  RH WIND       PRES   REMARKS
MARTINSBURG    PTSUNNY   86  63  45 CALM      30.03F
PETERSBURG*    NOT AVBL

$$

VAZ036>039-050-271900-
CENTRAL FOOTHILLS

CITY           SKY/WX    TMP DP  RH WIND       PRES   REMARKS
CHARLOTTESVILL SUNNY     83  61  47 N5        30.05F
ORANGE*        SUNNY     82  57  42 CALM      30.05F

$$

VAZ055>057-271900-
NORTH AND CENTRAL PIEDMONT

CITY           SKY/WX    TMP DP  RH WIND       PRES   REMARKS
FREDERICKSBRG* SUNNY     87  64  44 N3        30.01F
STAFFORD*      SUNNY     83  59  44 W3        30.06F

$$

NCZ024-NYZ072-PAZ021-071-VAZ022-071-271900-
OTHER REGIONAL OBSERVATIONS

CITY           SKY/WX    TMP DP  RH WIND       PRES   REMARKS
NEW YORK CITY  SUNNY     89  62  40 VRB3      29.97F
PHILADELPHIA   MOSUNNY   87  60  40 SW9       29.97F
PITTSBURGH     PTSUNNY   83  70  64 NW9       30.05F
ROANOKE        MOSUNNY   83  60  45 N8        30.11F
RICHMOND       MOSUNNY   87  61  41 CALM      30.01F
RALEIGH        MOSUNNY   83  62  49 N8        30.03F

$$

ANZ530>537-271900-
MARINE OBSERVATIONS

STATION/POSITION TIME  TEMP    WIND        PRES
                       AIR SEA DIR/SP/G
                 (UTC) (F)     (DEG/KT/KT) (MB)
THOMAS PT LIGHT  1800   79 79  160/  7/  8 1016.7F
BALT KEY BRIDGE  1800   85     120/  7/  9 1015.6F
COVE POINT       1800   78      10/  2/  4 1016.2F
LEWISETTA        1800   78 78  110/  2/  3 1016.0F
SOLOMONS ISLAND  1800      80                N/A
PINEY POINT      1800          230/  4/  5   N/A

$$




USA.gov is the U.S. government's official web portal to all federal, state and local government web resources and services.